D8954 Weather Reports


time (UTC)temp
C
wind
direction
speed
KPH
gust
KPH
rain 1hr
cm
rain 24hr
cm
rain mn
cm
humidity
%
barometer
mb
20260506124506 17 233 4.8 11.3 0.00 0.79 0.18 62 1004.8
20260506124005 17 357 3.2 19.3 0.00 0.79 0.18 64 1004.7
20260506123506 17 310 3.2 9.7 0.00 0.79 0.18 63 1004.7
20260506122506 17 209 8.0 16.1 0.00 0.79 0.18 65 1004.8
20260506122006 16 198 9.7 14.5 0.00 0.79 0.18 66 1004.9
20260506121506 16 233 8.0 19.3 0.00 0.79 0.18 65 1004.9
20260506121006 17 207 4.8 14.5 0.00 0.79 0.18 65 1004.9
20260506120506 17 210 4.8 12.9 0.00 0.79 0.18 64 1005.0
20260506115006 17 327 3.2 14.5 0.00 0.79 0.18 68 1005.0
20260506114505 17 187 4.8 14.5 0.00 0.79 0.18 64 1005.0
20260506114006 17 194 1.6 9.7 0.00 0.79 0.18 67 1005.0
20260506113505 16 329 9.7 19.3 0.00 0.79 0.18 67 1005.0
20260506113005 16 322 4.8 19.3 0.00 0.79 0.18 68 1005.1
20260506112505 16 74 4.8 14.5 0.00 0.79 0.18 68 1005.0
20260506112005 16 198 4.8 16.1 0.00 0.79 0.18 69 1005.1
20260506111506 16 355 3.2 8.0 0.00 0.79 0.18 68 1005.2
20260506111006 17 230 8.0 22.5 0.00 0.79 0.18 65 1005.2
20260506110006 16 201 9.7 19.3 0.00 0.79 0.18 68 1005.3
20260506105506 16 217 9.7 16.1 0.00 0.79 0.18 69 1005.3
20260506105006 16 201 4.8 9.7 0.00 0.79 0.18 69 1005.2
20260506104006 16 200 8.0 19.3 0.00 0.79 0.18 68 1005.2
20260506103506 17 220 4.8 9.7 0.00 0.79 0.18 67 1005.3
20260506103006 16 202 8.0 14.5 0.00 0.79 0.18 68 1005.2
20260506102506 16 213 4.8 16.1 0.00 0.79 0.18 68 1005.2
20260506102005 15 225 3.2 8.0 0.00 0.79 0.18 68 1005.3
20260506101506 16 218 8.0 16.1 0.00 0.79 0.18 70 1005.4
20260506101006 16 228 6.4 16.1 0.00 0.79 0.18 69 1005.4
20260506100505 16 197 9.7 14.5 0.00 0.79 0.18 69 1005.2
20260506100006 16 204 11.3 20.9 0.00 0.79 0.18 66 1005.2
20260506095506 16 238 8.0 16.1 0.00 0.79 0.18 70 1005.3
20260506095005 16 214 11.3 16.1 0.00 0.79 0.18 71 1005.3
20260506094506 16 200 9.7 19.3 0.00 0.79 0.18 71 1005.3
20260506094006 15 216 3.2 12.9 0.00 0.79 0.18 71 1005.4
20260506093506 15 217 1.6 4.8 0.00 0.79 0.18 75 1005.4
20260506093005 15 235 3.2 11.3 0.00 0.79 0.18 72 1005.5
20260506092506 15 221 4.8 9.7 0.00 0.79 0.18 74 1005.4
20260506092005 15 193 1.6 9.7 0.00 0.79 0.18 75 1005.5
20260506091505 15 220 4.8 11.3 0.00 0.79 0.18 73 1005.5
20260506091005 15 251 9.7 16.1 0.00 0.79 0.18 73 1005.5
20260506090506 15 219 4.8 19.3 0.00 0.79 0.18 73 1005.5
20260506090007 15 233 8.0 16.1 0.00 0.79 0.18 71 1005.5
20260506085506 15 222 8.0 22.5 0.00 0.79 0.18 72 1005.5
20260506085005 15 225 6.4 14.5 0.00 0.79 0.18 73 1005.5
20260506084505 15 207 8.0 12.9 0.00 0.79 0.18 74 1005.4
20260506084006 15 229 4.8 12.9 0.00 0.79 0.18 78 1005.5
20260506083509 15 204 4.8 14.5 0.00 0.79 0.18 77 1005.4
20260506083005 14 280 3.2 8.0 0.00 0.79 0.18 78 1005.3
20260506082506 15 254 6.4 12.9 0.00 0.79 0.18 78 1005.2
20260506082005 15 197 1.6 4.8 0.00 0.79 0.18 78 1005.1
20260506081506 15 336 3.2 11.3 0.00 0.79 0.18 75 1005.1
20260506081006 15 244 4.8 9.7 0.00 0.79 0.18 78 1005.0
20260506080506 15 355 1.6 12.9 0.00 0.79 0.18 77 1005.0
20260506073505 14 232 9.7 11.3 0.00 0.79 0.18 79 1005.1
20260506073006 14 200 4.8 11.3 0.00 0.79 0.18 83 1005.1
20260506072505 13 221 8.0 16.1 0.00 0.79 0.18 81 1005.2
20260506071506 13 205 4.8 11.3 0.00 0.79 0.18 82 1005.2
20260506071005 13 226 4.8 9.7 0.00 0.79 0.18 83 1005.2
20260506070505 13 211 6.4 11.3 0.00 0.79 0.18 83 1005.3
20260506062005 12 224 3.2 4.8 0.00 0.79 0.18 86 1005.2
20260506061506 12 306 3.2 4.8 0.00 0.79 0.18 86 1005.2
20260506061006 12 112 1.6 3.2 0.00 0.79 0.18 87 1005.3
20260506050505 11 211 3.2 4.8 0.00 0.79 0.18 90 1005.3
20260506045005 11 225 0.0 4.8 0.00 0.79 0.18 90 1005.2
20260506044505 11 221 1.6 4.8 0.00 0.79 0.18 91 1005.1
20260506044005 10 219 1.6 4.8 0.00 0.79 0.18 90 1005.2
20260506043505 10 220 3.2 4.8 0.00 0.79 0.18 90 1005.2
20260506043006 10 205 1.6 3.2 0.00 0.79 0.18 90 1005.2
20260506042505 10 209 3.2 4.8 0.00 0.79 0.18 90 1005.3
20260506042005 10 209 1.6 4.8 0.00 0.79 0.18 90 1005.3
20260506041505 10 269 0.0 3.2 0.00 0.79 0.18 90 1005.2
20260506041005 11 204 1.6 8.0 0.00 0.79 0.18 90 1005.3
20260506040505 11 219 3.2 11.3 0.00 0.79 0.18 90 1005.3
20260506040006 10 217 3.2 8.0 0.00 0.79 0.18 90 1005.3
20260506035505 11 255 3.2 11.3 0.00 0.79 0.18 90 1005.3
20260506035005 11 216 1.6 3.2 0.00 0.79 0.18 90 1005.3
20260506034505 11 217 1.6 4.8 0.00 0.79 0.18 90 1005.3
20260506034006 11 223 1.6 4.8 0.00 0.79 0.18 90 1005.3
20260506033505 11 239 1.6 4.8 0.00 0.79 0.18 90 1005.4
20260506033006 11 229 4.8 11.3 0.00 0.79 0.18 91 1005.5
20260506032006 11 209 3.2 4.8 0.00 0.79 0.18 91 1005.5
20260506031505 11 226 3.2 8.0 0.00 0.79 0.18 91 1005.5
20260506031005 10 199 1.6 4.8 0.00 0.79 0.18 91 1005.6
20260506030506 10 199 3.2 4.8 0.00 0.79 0.18 91 1005.6
20260506030006 10 204 3.2 4.8 0.00 0.79 0.18 91 1005.5
20260506025506 10 226 1.6 4.8 0.00 0.79 0.18 91 1005.7
20260506025006 10 207 0.0 3.2 0.00 0.79 0.18 90 1005.6
20260506024506 10 207 1.6 4.8 0.00 0.79 0.18 91 1005.7
20260506024005 10 209 1.6 4.8 0.00 0.79 0.18 90 1005.7
20260506023505 10 204 1.6 4.8 0.00 0.79 0.18 90 1005.7
20260506023007 10 217 3.2 4.8 0.00 0.79 0.18 90 1005.7
20260506022505 10 218 1.6 4.8 0.00 0.79 0.18 90 1005.6
20260506022005 10 217 1.6 4.8 0.00 0.79 0.18 90 1005.7
20260506021505 10 224 3.2 8.0 0.00 0.79 0.18 90 1005.7
20260506021006 10 203 4.8 4.8 0.00 0.79 0.18 90 1005.7
20260506020505 10 223 1.6 4.8 0.00 0.79 0.18 90 1005.7
20260506020006 10 216 3.2 4.8 0.00 0.79 0.18 90 1005.7
20260506015505 10 205 0.0 3.2 0.00 0.79 0.18 90 1005.7
20260506015006 10 205 1.6 3.2 0.00 0.79 0.18 90 1005.7
20260506014005 10 219 0.0 3.2 0.00 0.79 0.18 90 1005.8
20260506012505 11 226 1.6 4.8 0.00 0.79 0.18 90 1005.9
20260506012005 11 223 3.2 8.0 0.00 0.79 0.18 90 1005.9
20260506011505 11 251 3.2 11.3 0.00 0.79 0.18 90 1006.0
20260506011006 11 201 3.2 4.8 0.00 0.79 0.18 90 1006.0
20260506010005 11 207 3.2 4.8 0.00 0.79 0.18 90 1006.0
20260506005505 11 226 1.6 4.8 0.00 0.79 0.18 90 1006.0
20260506005005 11 215 3.2 9.7 0.00 0.79 0.18 90 1006.0
20260506004507 11 223 1.6 4.8 0.00 0.79 0.18 90 1006.0
20260506004004 11 193 3.2 4.8 0.03 0.79 0.18 90 1006.1
20260506003505 11 217 1.6 4.8 0.03 0.79 0.18 90 1006.2
20260506003005 11 210 3.2 8.0 0.03 0.79 0.18 90 1006.2
20260506002505 11 214 3.2 4.8 0.03 0.79 0.18 91 1006.2
20260506001505 11 205 1.6 3.2 0.03 0.79 0.18 91 1006.1
20260506001005 11 205 1.6 4.8 0.03 0.79 0.18 90 1006.3
20260506000006 11 313 1.6 3.2 0.03 0.79 0.18 90 1006.4
20260505235508 11 216 3.2 8.0 0.03 0.79 0.18 90 1006.3
20260505234505 11 257 3.2 4.8 0.03 0.79 0.18 91 1006.3
20260505234004 11 204 4.8 8.0 0.00 0.79 0.15 91 1006.5
20260505233505 11 223 4.8 9.7 0.00 0.79 0.15 91 1006.5
20260505232504 11 216 3.2 4.8 0.05 0.79 0.15 91 1006.5
20260505232005 11 209 3.2 4.8 0.05 0.79 0.15 91 1006.5
20260505231505 12 197 0.0 4.8 0.08 0.79 0.15 91 1006.5
20260505231006 12 205 1.6 4.8 0.10 0.79 0.15 91 1006.5
20260505230506 11 212 3.2 4.8 0.13 0.79 0.15 91 1006.6
20260505230007 12 215 3.2 4.8 0.15 0.79 0.15 91 1006.5
20260505225505 12 218 1.6 3.2 0.18 0.79 0.15 91 1006.5
20260505225005 12 218 1.6 3.2 0.20 0.79 0.15 91 1006.5
20260505224504 12 219 1.6 3.2 0.23 0.79 0.15 91 1006.6
20260505224005 12 219 1.6 3.2 0.23 0.79 0.15 91 1006.6
20260505223505 12 226 3.2 4.8 0.23 0.79 0.15 91 1006.6
20260505223005 12 265 1.6 4.8 0.23 0.76 0.15 91 1006.5
20260505222505 12 241 1.6 4.8 0.20 0.71 0.10 92 1006.6
20260505222005 12 223 1.6 3.2 0.20 0.71 0.10 92 1006.7
20260505221505 12 224 0.0 0.0 0.18 0.71 0.08 92 1006.6
20260505221005 12 224 0.0 0.0 0.15 0.69 0.05 92 1006.6
20260505215505 12 223 0.0 0.0 0.10 0.61 0.61 92 1006.5
20260505215005 12 224 0.0 0.0 0.05 0.58 0.58 92 1006.5
20260505214505 12 224 0.0 0.0 0.03 0.53 0.53 92 1006.6
20260505214005 12 224 0.0 0.0 0.03 0.53 0.53 92 1006.5
20260505213505 12 224 0.0 0.0 0.03 0.53 0.53 92 1006.6
20260505213005 12 224 0.0 0.0 0.03 0.53 0.53 92 1006.5
20260505212005 12 224 0.0 0.0 0.00 0.51 0.51 92 1006.5
20260505211505 12 224 0.0 0.0 0.00 0.51 0.51 92 1006.5
20260505211005 12 224 0.0 0.0 0.00 0.51 0.51 92 1006.6
20260505210505 12 224 0.0 0.0 0.00 0.51 0.51 92 1006.7
20260505205505 12 224 0.0 0.0 0.00 0.51 0.51 92 1006.7
20260505205005 12 224 0.0 0.0 0.00 0.51 0.51 92 1006.7
20260505204504 12 224 0.0 0.0 0.00 0.51 0.51 92 1006.7
20260505204005 12 224 0.0 0.0 0.00 0.51 0.51 92 1006.8
20260505203505 12 224 0.0 0.0 0.00 0.51 0.51 92 1006.8
20260505203005 12 224 0.0 3.2 0.00 0.51 0.51 92 1006.8
20260505202005 12 224 1.6 4.8 0.00 0.51 0.51 92 1006.8
20260505201504 12 224 0.0 3.2 0.00 0.51 0.51 92 1006.8
20260505201004 12 225 3.2 4.8 0.00 0.51 0.51 92 1006.7
20260505200505 12 234 1.6 3.2 0.00 0.51 0.51 92 1006.7
20260505200005 11 236 1.6 3.2 0.00 0.51 0.51 92 1006.6
20260505195504 11 236 0.0 3.2 0.00 0.51 0.51 91 1006.6
20260505195004 11 236 1.6 3.2 0.00 0.51 0.51 91 1006.6
20260505194504 11 235 0.0 3.2 0.00 0.51 0.51 91 1006.6
20260505194004 11 236 0.0 0.0 0.00 0.51 0.51 91 1006.5
20260505193504 11 236 0.0 0.0 0.00 0.51 0.51 91 1006.4
20260505193004 11 236 0.0 0.0 0.00 0.51 0.51 91 1006.3
20260505192504 11 236 0.0 0.0 0.00 0.51 0.51 91 1006.3
20260505192004 11 236 0.0 0.0 0.00 0.51 0.51 91 1006.4
20260505191504 12 236 0.0 0.0 0.00 0.51 0.51 91 1006.3
20260505191004 12 236 0.0 3.2 0.00 0.51 0.51 91 1006.4
20260505190504 12 236 0.0 1.6 0.00 0.51 0.51 91 1006.3
20260505190005 12 236 0.0 3.2 0.00 0.51 0.51 91 1006.3
20260505185504 12 236 0.0 0.0 0.00 0.51 0.51 91 1006.3
20260505185004 12 236 0.0 0.0 0.00 0.51 0.51 91 1006.3
20260505184504 12 236 0.0 0.0 0.00 0.51 0.51 91 1006.2
20260505184004 12 236 0.0 3.2 0.00 0.51 0.51 91 1006.3
20260505183504 12 236 1.6 3.2 0.00 0.51 0.51 91 1006.3
20260505183004 12 236 0.0 0.0 0.00 0.51 0.51 91 1006.1
20260505182504 12 236 0.0 0.0 0.00 0.51 0.51 91 1006.0
20260505181504 12 236 0.0 0.0 0.03 0.51 0.51 90 1006.1
20260505181004 13 236 0.0 0.0 0.03 0.51 0.51 90 1006.1
20260505180004 13 236 0.0 3.2 0.03 0.51 0.51 91 1006.1
20260505175503 13 236 1.6 1.6 0.03 0.51 0.51 90 1006.1
20260505174504 13 232 1.6 3.2 0.03 0.51 0.51 90 1006.1
20260505174004 13 232 1.6 1.6 0.03 0.51 0.51 90 1006.2
20260505173504 13 232 0.0 0.0 0.05 0.51 0.51 90 1006.2
20260505173004 13 232 0.0 3.2 0.05 0.51 0.51 90 1006.2
20260505172504 13 232 0.0 3.2 0.05 0.51 0.51 90 1006.2
20260505172004 13 232 0.0 1.6 0.05 0.51 0.51 90 1006.3
20260505171504 13 232 1.6 3.2 0.05 0.51 0.51 90 1006.4
20260505171004 13 232 1.6 3.2 0.05 0.51 0.51 90 1006.4
20260505170505 13 232 0.0 3.2 0.08 0.51 0.51 90 1006.4
20260505170004 13 232 0.0 3.2 0.08 0.51 0.51 90 1006.3
20260505165504 13 232 1.6 3.2 0.10 0.51 0.51 90 1006.3
20260505164504 13 232 0.0 3.2 0.15 0.51 0.51 90 1006.3
20260505164003 13 232 0.0 0.0 0.18 0.51 0.51 89 1006.3
20260505163004 13 232 0.0 1.6 0.18 0.48 0.48 89 1006.4
20260505162503 13 232 0.0 3.2 0.18 0.46 0.46 89 1006.5
20260505162004 13 232 0.0 1.6 0.18 0.46 0.46 88 1006.6
20260505161504 13 232 0.0 3.2 0.18 0.43 0.43 88 1006.6
20260505160504 13 232 0.0 3.2 0.20 0.43 0.43 88 1006.7
20260505153004 13 193 3.2 4.8 0.28 0.30 0.30 87 1006.9
20260505152504 14 237 3.2 4.8 0.28 0.28 0.28 87 1007.0
20260505152003 14 230 1.6 4.8 0.28 0.28 0.28 87 1007.0
20260505151003 14 241 1.6 4.8 0.23 0.23 0.23 86 1006.9
20260505150504 14 260 1.6 4.8 0.23 0.23 0.23 86 1006.9
20260505140504 17 319 4.8 14.5 0.00 0.00 0.00 70 1005.9
20260505125006 18 345 9.7 19.3 0.00 0.00 0.00 66 1006.5